Location: Palomar Mountain Lodge
(33.3110°N, 116.8495°W)
Time: 14:26:10
(UTC-07:00)

USA 245 - Pass Details

Date: 12 July 2018
Orbit: 265 x 1003 km, 97.9° (Epoch: 12 July)

Event Time Altitude Azimuth Distance (km) Brightness Sun altitude
Exits shadow 22:19:42 40° 189° (S) 1,323 4.9 -23.8°
Maximum altitude 22:21:51 69° 258° (WSW) 952 4.4 -24.1°
Drops below altitude 10° 22:27:11 10° 342° (NNW) 2,359 7.5 -24.8°
Sets 22:29:21 0° 345° (NNW) 3,187 8.3 -25.1°
